Lamar, CO

2:10 PM MST on December 15, 2019 (GMT -0700)
Lamar Municipal

Weather History for KLAA - November, 2019

Change the Weather History Date:

Monday, November 11, 2019

  Actual Average Record
Temperature  
Mean Temperature 20 °F 42 °F  
Max Temperature 35 °F 59 °F 82 °F (2005)
Min Temperature 4 °F 25 °F 2 °F (1946)
Degree Days  
Heating Degree Days 45 23  
Month to date heating degree days 279 230  
Since 1 July heating degree days 849 697  
Cooling Degree Days 0 0  
Month to date cooling degree days 0 0  
Year to date cooling degree days 1406 1121  
Moisture  
Dew Point 11 °F    
Average Humidity 65    
Maximum Humidity 88    
Minimum Humidity 41    
Precipitation  
Precipitation T in 0.02 in 0.34 in (1992)
Month to date precipitation 0.01 0.22  
Year to date precipitation 7.96 14.64  
Sea Level Pressure  
Sea Level Pressure 30.55 in    
Wind  
Wind Speed 13 mph (NE)    
Max Wind Speed 31 mph    
Max Gust Speed 44 mph    
Visibility 10 miles    
Events      
T = Trace of Precipitation, MM = Missing Value Source: NWS Daily Summary

Daily Weather History Graph

Daily Weather History Graph

Search for Another Location

Airport or City:

Astronomy

Nov. 11, 2019 Rise Set
Actual Time 6:27 AM MST 4:41 PM MST
Civil Twilight 5:59 AM MST 5:09 PM MST
Nautical Twilight 5:27 AM MST 5:41 PM MST
Astronomical Twilight 4:56 AM MST 6:12 PM MST
Moon 4:37 PM MST (11/11) 5:22 AM MST (11/11)
Length of Visible Light 11h 10m
Length of Day
10h 14m
Waxing Gibbous, 99% of the Moon is Illuminated
Nov 11
Waxing Gibbous
Nov 12
Full
Nov 19
Last Quarter
Nov 26
New
Dec 3
First Quarter

Hourly Weather History & Observations

Time (MST) Temp. Windchill Dew Point Humidity Pressure Visibility Wind Dir Wind Speed Gust Speed Precip Events Conditions
12:50 AM 33.8 °F 22.5 °F 30.2 °F 87% 30.23 in 8.0 mi NE 19.6 mph 32.2 mph N/A   Overcast
12:53 AM 33.1 °F 21.2 °F 30.0 °F 89% 30.20 in 7.0 mi NNE 20.7 mph 32.2 mph N/A   Overcast
1:07 AM 28.9 °F 14.8 °F 25.0 °F 85% 30.25 in 9.0 mi NNE 24.2 mph 41.4 mph 0.00 in   Overcast
1:53 AM 27.0 °F 12.5 °F 21.9 °F 81% 30.29 in 10.0 mi NNE 23.0 mph 33.4 mph 0.00 in   Overcast
2:42 AM 25.0 °F 9.5 °F 19.0 °F 78% 30.35 in 10.0 mi NNE 24.2 mph 36.8 mph N/A   Overcast
2:53 AM 24.1 °F 8.7 °F 18.0 °F 77% 30.35 in 10.0 mi NNE 23.0 mph 38.0 mph N/A   Overcast
3:53 AM 21.9 °F 8.2 °F 15.1 °F 75% 30.39 in 10.0 mi NNE 16.1 mph 25.3 mph N/A   Overcast
4:53 AM 19.9 °F 3.2 °F 12.9 °F 74% 30.48 in 10.0 mi NNE 23.0 mph 32.2 mph N/A   Overcast
5:53 AM 19.9 °F 4.3 °F 12.0 °F 71% 30.53 in 10.0 mi NE 19.6 mph 26.5 mph 0.00 in   Overcast
6:53 AM 19.9 °F 9.3 °F 12.9 °F 74% 30.56 in 10.0 mi NNE 9.2 mph 27.6 mph N/A   Overcast
7:38 AM 19.9 °F 5.7 °F 10.9 °F 68% 30.55 in 10.0 mi NNE 16.1 mph 25.3 mph N/A   Overcast
7:53 AM 19.9 °F 6.2 °F 10.0 °F 65% 30.63 in 10.0 mi NE 15.0 mph - N/A   Overcast
8:20 AM 19.9 °F 6.7 °F 9.0 °F 62% 30.57 in 10.0 mi NNE 13.8 mph - N/A   Overcast
8:53 AM 21.0 °F 8.1 °F 10.0 °F 63% 30.65 in 10.0 mi NNE 13.8 mph - N/A   Overcast
9:40 AM 21.9 °F 9.8 °F 8.1 °F 55% 30.59 in 10.0 mi North 12.7 mph 26.5 mph N/A   Overcast
9:53 AM 23.0 °F 9.6 °F 8.1 °F 53% 30.66 in 10.0 mi NNE 16.1 mph - N/A   Overcast
10:53 AM 26.1 °F 13.6 °F 7.0 °F 44% 30.65 in 10.0 mi NNE 16.1 mph 25.3 mph N/A   Partly Cloudy
11:53 AM 27.0 °F 15.6 °F 8.1 °F 45% 30.63 in 10.0 mi North 13.8 mph 23.0 mph N/A   Clear
12:53 PM 28.0 °F 16.5 °F 8.1 °F 43% 30.61 in 10.0 mi North 15.0 mph 26.5 mph N/A   Clear
1:53 PM 28.9 °F 17.7 °F 8.1 °F 41% 30.61 in 10.0 mi North 15.0 mph - N/A   Clear
2:53 PM 28.9 °F 19.2 °F 8.1 °F 41% 30.62 in 10.0 mi NE 11.5 mph - N/A   Clear
3:53 PM 28.0 °F 18.1 °F 8.1 °F 43% 30.63 in 10.0 mi NE 11.5 mph - N/A   Clear
4:53 PM 21.0 °F 12.4 °F 8.1 °F 57% 30.67 in 10.0 mi ENE 6.9 mph - N/A   Clear
5:53 PM 17.1 °F 8.7 °F 7.0 °F 65% 30.69 in 10.0 mi East 5.8 mph - N/A   Clear
6:53 PM 14.0 °F 2.9 °F 6.1 °F 71% 30.71 in 10.0 mi SE 8.1 mph - N/A   Clear
7:53 PM 10.0 °F -0.9 °F 3.9 °F 76% 30.73 in 10.0 mi SE 6.9 mph - N/A   Clear
8:53 PM 8.1 °F -4.3 °F 3.0 °F 80% 30.73 in 10.0 mi SSW 8.1 mph - N/A   Clear
9:53 PM 8.1 °F -3.2 °F 3.9 °F 83% 30.71 in 10.0 mi SSW 6.9 mph - N/A   Clear
10:53 PM 6.1 °F -5.6 °F 3.0 °F 87% 30.70 in 10.0 mi SW 6.9 mph - N/A   Clear
11:53 PM 8.1 °F - 3.0 °F 80% 30.67 in 10.0 mi Calm Calm - N/A   Clear